Richmond Hanover County, VA

8:05 PM EDT on May 25, 2017 (GMT -0400)
Hanover County Municipal

Weather History for KOFP - October, 2012

Change the Weather History Date:

Monday, October 15, 2012

  Actual Average Record
Temperature  
Mean Temperature 61 °F -  
Max Temperature 69 °F 73 °F 87 °F (1954)
Min Temperature 53 °F 45 °F 30 °F (1987)
Degree Days  
Heating Degree Days 4    
Growing Degree Days 11 (Base 50)    
Moisture  
Dew Point 58 °F    
Average Humidity 82    
Maximum Humidity 100    
Minimum Humidity 68    
Precipitation  
Precipitation 0.08 in - - ()
Sea Level Pressure  
Sea Level Pressure 29.82 in    
Wind  
Wind Speed 8 mph (SSW)    
Max Wind Speed 15 mph    
Max Gust Speed 20 mph    
Visibility 9 miles    
Events Rain    
Averages and records for this station are not official NWS values.
T = Trace of Precipitation, MM = Missing Value Source: NWS Daily Summary

Daily Weather History Graph

Daily Weather History Graph

Search for Another Location

Airport or City:

Trip Planner

Search our weather history database for the weather conditions in past years. The results will help you decide how hot, cold, wet, or windy it might be!

Date:

Astronomy

Oct. 15, 2012 Rise Set
Actual Time 7:18 AM EDT 6:31 PM EDT
Civil Twilight 6:52 AM EDT 6:58 PM EDT
Nautical Twilight 6:21 AM EDT 7:28 PM EDT
Astronomical Twilight 5:51 AM EDT 7:58 PM EDT
Moon 7:25 AM EDT (10/15) 6:31 PM EDT (10/15)
Length of Visible Light 12h 06m
Length of Day
11h 13m
New Moon, 0% of the Moon is Illuminated
Oct 15
New Moon
Oct 21
First Quarter
Oct 29
Full
Nov 6
Last Quarter
Nov 13
New

Hourly Weather History & Observations

Time (EDT) Temp. Dew Point Humidity Pressure Visibility Wind Dir Wind Speed Gust Speed Precip Events Conditions
12:54 AM 66.9 °F 57.0 °F 70% 29.99 in 10.0 mi South 6.9 mph - N/A   Overcast
1:54 AM 66.0 °F 57.0 °F 73% 29.97 in 10.0 mi South 9.2 mph - N/A   Mostly Cloudy
2:54 AM 64.9 °F 57.0 °F 75% 29.94 in 10.0 mi South 8.1 mph - N/A   Clear
3:54 AM 66.0 °F 57.0 °F 73% 29.92 in 10.0 mi SSW 9.2 mph - N/A   Clear
4:54 AM 66.9 °F 55.9 °F 68% 29.90 in 10.0 mi SSW 9.2 mph - N/A   Clear
5:54 AM 66.9 °F 55.9 °F 68% 29.88 in 10.0 mi South 9.2 mph 18.4 mph N/A   Clear
6:54 AM 66.9 °F 55.9 °F 68% 29.87 in 10.0 mi SSW 10.4 mph - N/A   Clear
7:54 AM 66.0 °F 57.0 °F 73% 29.86 in 10.0 mi South 9.2 mph - N/A   Clear
8:54 AM 68.0 °F 57.9 °F 70% 29.86 in 10.0 mi SSW 15.0 mph 19.6 mph N/A   Partly Cloudy
9:54 AM 66.9 °F 61.0 °F 81% 29.86 in 7.0 mi SSW 9.2 mph - 0.01 in Rain Light Rain
10:54 AM 66.0 °F 61.0 °F 84% 29.85 in 7.0 mi SSW 12.7 mph 19.6 mph 0.02 in Rain Light Rain
11:54 AM 66.9 °F 61.0 °F 81% 29.82 in 10.0 mi SW 10.4 mph 18.4 mph 0.00 in   Overcast
12:54 PM 66.9 °F 60.1 °F 79% 29.81 in 10.0 mi South 9.2 mph - 0.00 in Rain Light Rain
1:54 PM 64.9 °F 60.1 °F 84% 29.78 in 10.0 mi SSW 9.2 mph 17.3 mph 0.01 in   Overcast
2:54 PM 66.9 °F 61.0 °F 81% 29.74 in 10.0 mi SSW 10.4 mph - 0.01 in   Clear
3:54 PM 66.0 °F 61.0 °F 84% 29.74 in 10.0 mi SSW 8.1 mph - 0.00 in   Overcast
4:33 PM 66.2 °F 62.6 °F 88% 29.72 in 10.0 mi South 6.9 mph - 0.00 in   Mostly Cloudy
4:54 PM 66.9 °F 62.1 °F 84% 29.70 in 10.0 mi SSW 8.1 mph - 0.00 in   Mostly Cloudy
5:54 PM 66.9 °F 61.0 °F 81% 29.70 in 10.0 mi SW 5.8 mph - N/A   Partly Cloudy
6:54 PM 64.9 °F 61.0 °F 87% 29.71 in 10.0 mi South 5.8 mph - N/A   Scattered Clouds
7:54 PM 64.9 °F 61.0 °F 87% 29.71 in 10.0 mi SW 5.8 mph - N/A   Mostly Cloudy
8:54 PM 59.0 °F 57.0 °F 93% 29.76 in 10.0 mi NW 5.8 mph - 0.03 in   Mostly Cloudy
9:54 PM 57.0 °F 55.9 °F 96% 29.80 in 10.0 mi Calm Calm - N/A   Mostly Cloudy
10:54 PM 54.0 °F 53.1 °F 97% 29.83 in 8.0 mi NW 3.5 mph - N/A   Partly Cloudy
11:54 PM 54.0 °F 53.1 °F 97% 29.83 in 2.0 mi Calm Calm - N/A   Partly Cloudy
11:56 PM 53.6 °F 53.6 °F 100% 29.84 in 1.2 mi Calm Calm - N/A   Partly Cloudy